Location: Betzi
(47.2343°N, 9.5260°E)
Time: 23:03:00
(UTC+00:00)

MSX - Pass Details

Date: 27 May 2022
Orbit: 895 x 905 km, 98.9° (Epoch: 26 June)

Event Time Altitude Azimuth Distance (km) Brightness Sun altitude
Rises 02:16:58 0° 12° (NNE) 3,535 8.1 -10.7°
Reaches altitude 10° 02:19:23 10° 11° (N) 2,591 7.2 -10.4°
Maximum altitude 02:25:07 70° 289° (WNW) 961 3.9 -9.7°
Drops below altitude 10° 02:30:51 10° 207° (SSW) 2,579 5.6 -9.1°
Enters shadow 02:30:57 - 206° (SSW) 2,623 5.7 -9.0°
